Tracking 17152 objects as of 28-April-2015
HD Live streaming from Space Station

ARIANE 5 DEB (SYLDA)

Track ARIANE 5 DEB (SYLDA) now!
ARIANE 5 DEB (SYLDA) is classified as:


NORAD ID: 28914
Int'l Code: 2005-049D
Perigee: 636.9 km
Apogee: 36,058.3 km
Inclination: 4.4 °
Period: 644.6 minutes
Semi major axis: 24718 km
RCS: 22.4158 m2 (large)
Launch date: December 21, 2005
Source: France (FR)

Note: This is SATELLITE DEBRIS
Your satellite tracking list
Your tracking list is empty




NASA's NSSDC Master Catalog

Two Line Element Set (TLE):
1 28914U 05049D   15118.46296123 -.00000231  00000-0  56078-3 0  9997
2 28914 004.3892 044.6688 7164942 181.1369 008.5975 02.23391641 76299

Source of the keplerian elements: AFSPC

N2YO: 419